This demonstration page uses our WeatherBlox Daily Observations layout. Learn more.

Hourly Observations for December 19, 2019

Temp ( °F °C ) Dew Point ( °F °C ) Humidity (%) Winds ( mph kmh ) Pressure ( in mb ) Visibility ( mi km ) Precip ( " mm )
12:15 am 00:15 Clear 28 -2.2 22 -5.8 77 77 SW 3 6 30.19 1022 10 16.0934 0 0
12:35 am 00:35 Clear 30 -1 22 -5.5 72 72 Calm 30.16 1021 10 16.0934 0 0
12:55 am 00:55 Clear 25 -3.9 19 -7 79 79 Calm 30.18 1022 10 16.0934 0 0
1:15 am 01:15 Clear 26 -3.6 20 -6.6 80 80 Calm 30.17 1022 10 16.0934 0 0
1:35 am 01:35 Clear 24 -4.7 20 -6.8 85 85 Calm 30.18 1022 10 16.0934 0 0
1:55 am 01:55 Clear 24 -4.2 21 -6.3 85 85 Calm 30.18 1022 10 16.0934 0 0
2:15 am 02:15 Clear 22 -5.7 19 -7.5 87 87 Calm 30.19 1022 10 16.0934 0 0
2:35 am 02:35 Clear 21 -6.2 18 -7.9 88 88 Calm 30.2 1023 10 16.0934 0 0
2:55 am 02:55 Clear 22 -5.7 18 -7.7 86 86 Calm 30.2 1023 10 16.0934 0 0
3:15 am 03:15 Clear 23 -5 20 -6.9 87 87 Calm 30.19 1022 10 16.0934 0 0
3:35 am 03:35 Clear 22 -5.6 18 -7.6 86 86 Calm 30.19 1022 10 16.0934 0 0
3:55 am 03:55 Clear 17 -8.1 14 -9.8 88 88 Calm 30.2 1023 10 16.0934 0 0
4:15 am 04:15 Clear 19 -7.5 16 -9.1 88 88 Calm 30.2 1023 10 16.0934 0 0
4:35 am 04:35 Clear 20 -6.7 17 -8.3 89 89 Calm 30.18 1022 10 16.0934 0 0
4:55 am 04:55 Clear 21 -6.3 18 -7.8 89 89 Calm 30.18 1022 10 16.0934 0 0
5:15 am 05:15 Clear 21 -6.1 18 -7.9 87 87 Calm 30.17 1022 10 16.0934 0 0
5:35 am 05:35 Clear 19 -7.3 16 -8.8 89 89 Calm 30.18 1022 10 16.0934 0 0
5:55 am 05:55 Clear 19 -7.2 16 -8.7 89 89 Calm 30.18 1022 10 16.0934 0 0
6:15 am 06:15 Clear 19 -7 16 -8.9 86 86 Calm 30.17 1022 10 16.0934 0 0
6:35 am 06:35 Clear 19 -7.1 16 -8.7 89 89 Calm 30.17 1022 10 16.0934 0 0
6:55 am 06:55 Clear 20 -6.7 17 -8.4 88 88 SSE 3 6 30.17 1022 10 16.0934 0 0
7:15 am 07:15 Clear 23 -5.1 19 -7.2 85 85 Calm 30.15 1021 10 16.0934 0 0
7:35 am 07:35 Clear 24 -4.7 20 -6.8 85 85 S 6 9 30.14 1021 10 16.0934 0 0
7:55 am 07:55 Clear 24 -4.5 20 -6.9 84 84 S 5 7 30.14 1021 10 16.0934 0 0
8:15 am 08:15 Sunny 23 -5 19 -7 86 86 S 5 7 30.14 1021 10 16.0934 0 0
8:35 am 08:35 Sunny 25 -4.1 20 -6.5 84 84 S 3 6 30.13 1020 10 16.0934 0 0
8:55 am 08:55 Sunny 25 -3.9 21 -6 86 86 S 5 7 30.13 1020 10 16.0934 0 0
9:15 am 09:15 Sunny 28 -2.1 24 -4.4 84 84 S 8 13 30.12 1020 10 16.0934 0 0
9:35 am 09:35 Sunny 31 -0.7 24 -4.5 76 76 SSE 8 13 30.1 1019 10 16.0934 0 0
9:55 am 09:55 Sunny 32 -0.1 25 -4.1 75 75 S 8 13 30.09 1019 10 16.0934 0 0
10:15 am 10:15 Sunny 34 0.9 26 -3.6 72 72 S 8 13 30.08 1018 10 16.0934 0 0
10:35 am 10:35 Sunny 34 1.3 25 -4 68 68 S 10 17 30.08 1019 10 16.0934 0 0
10:55 am 10:55 Sunny 35 1.5 24 -4.4 65 65 S 10 17 30.08 1019 10 16.0934 0 0
11:15 am 11:15 Sunny 35 1.6 25 -3.8 68 68 S 10 17 30.07 1018 10 16.0934 0 0
11:35 am 11:35 Sunny 38 3.1 26 -3.2 64 64 S 13 20 30.06 1018 10 16.0934 0 0
11:55 am 11:55 Sunny 40 4.3 25 -3.7 56 56 S 14 22 30.03 1017 10 16.0934 0 0
12:15 pm 12:15 Sunny 39 4.1 26 -3.2 59 59 S 10 17 30.02 1016 10 16.0934 0 0
12:35 pm 12:35 Sunny 42 5.4 27 -2.9 55 55 S 10 17 30 1016 10 16.0934 0 0
12:55 pm 12:55 Sunny 43 6.2 26 -3.3 51 51 S 9 15 30 1016 10 16.0934 0 0
1:15 pm 13:15 Sunny 47 8.2 24 -4.2 42 42 S 15 24 29.96 1015 10 16.0934 0 0
1:35 pm 13:35 Sunny 48 8.7 24 -4.4 40 40 S 15 24 29.94 1014 10 16.0934 0 0
1:55 pm 13:55 Sunny 49 9.5 24 -4.5 37 37 SSW 16 26 29.94 1014 10 16.0934 0 0
2:15 pm 14:15 Sunny 49 9.5 24 -4.4 38 38 S 16 26 29.93 1013 10 16.0934 0 0
2:35 pm 14:35 Sunny 48 8.8 25 -4 41 41 SSW 10 17 29.93 1014 10 16.0934 0 0
2:55 pm 14:55 Sunny 50 10 25 -4.1 37 37 S 10 17 29.92 1013 10 16.0934 0 0
3:15 pm 15:15 Sunny 49 9.2 25 -4 39 39 S 10 17 29.94 1014 10 16.0934 0 0
3:35 pm 15:35 Sunny 47 8.4 24 -4.2 41 41 S 14 22 29.95 1014 10 16.0934 0 0
3:55 pm 15:55 Sunny 45 7 25 -3.8 46 46 S 9 15 29.96 1015 10 16.0934 0 0
4:15 pm 16:15 Sunny 44 6.5 26 -3.3 50 50 S 12 19 29.96 1015 10 16.0934 0 0
4:35 pm 16:35 Sunny 43 6 26 -3.5 51 51 S 9 15 29.97 1015 10 16.0934 0 0
4:55 pm 16:55 Sunny 43 6 24 -4.3 48 48 S 9 15 29.98 1015 10 16.0934 0 0
5:15 pm 17:15 Clear 40 4.6 24 -4.5 52 52 SSE 5 7 30 1016 10 16.0934 0 0
5:35 pm 17:35 Clear 37 3 25 -4.1 60 60 SSE 8 13 30.02 1016 10 16.0934 0 0
5:55 pm 17:55 Clear 37 2.6 25 -4.1 62 62 SSE 8 13 30.02 1017 10 16.0934 0 0
6:15 pm 18:15 Clear 36 2.2 24 -4.5 62 62 SSE 10 17 30.03 1017 10 16.0934 0 0
6:35 pm 18:35 Clear 38 3.1 23 -4.8 57 57 S 10 17 30.04 1017 10 16.0934 0 0
6:55 pm 18:55 Clear 38 3.5 23 -5 54 54 S 13 20 30.03 1017 10 16.0934 0 0
7:15 pm 19:15 Clear 37 2.8 22 -5.5 55 55 S 14 22 30.05 1018 10 16.0934 0 0
7:35 pm 19:35 Clear 36 2.4 22 -5.7 56 56 S 13 20 30.05 1018 10 16.0934 0 0
7:55 pm 19:55 Clear 36 2 21 -6.1 55 55 S 13 20 30.07 1018 10 16.0934 0 0
8:15 pm 20:15 Clear 37 2.8 19 -7 49 49 S 13 20 30.07 1018 10 16.0934 0 0
8:35 pm 20:35 Clear 37 3 19 -7.3 47 47 S 14 22 30.07 1018 10 16.0934 0 0
8:55 pm 20:55 Clear 36 2.2 19 -7.1 51 51 S 12 19 30.07 1018 10 16.0934 0 0
9:15 pm 21:15 Clear 37 2.5 19 -7.5 48 48 S 13 20 30.07 1018 10 16.0934 0 0
9:35 pm 21:35 Clear 36 2.3 18 -7.7 48 48 S 14 22 30.07 1018 10 16.0934 0 0
9:55 pm 21:55 Clear 34 1 18 -7.6 53 53 S 12 19 30.09 1019 10 16.0934 0 0
10:15 pm 22:15 Clear 35 1.8 18 -8 49 49 S 12 19 30.09 1019 10 16.0934 0 0
10:35 pm 22:35 Clear 35 1.5 17 -8.1 49 49 S 10 17 30.1 1019 10 16.0934 0 0
10:55 pm 22:55 Clear 34 1.1 17 -8.3 50 50 S 12 19 30.1 1019 10 16.0934 0 0
11:15 pm 23:15 Clear 33 0.6 17 -8.5 51 51 S 9 15 30.11 1020 10 16.0934 0 0
11:35 pm 23:35 Clear 33 0.3 17 -8.3 53 53 S 9 15 30.11 1020 10 16.0934 0 0
11:55 pm 23:55 Clear 30 -1 18 -7.8 60 60 S 9 15 30.11 1020 10 16.0934 0 0

Powered by AerisWeather